Location: Saint-Palais-sur-Mer
(45.6429°N, 1.0859°W)
Time: 02:53:45
(UTC+02:00)

CAS-6 - Visible Passes

Search period start: 11 September 2024 00:00
Search period end: 21 September 2024 00:00
Orbit: 605 x 627 km, 97.8° (Epoch: 10 September)

Date Brightness Start Highest point End Pass type
(mag) Time Alt. Az. Time Alt. Az. Time Alt. Az.
11 Sep ? 00:58:03 12° NW 00:58:03 12° NW 00:58:30 10° NNW visible
11 Sep ? 23:37:18 19° NNE 23:37:18 19° NNE 23:38:39 10° N visible
12 Sep ? 23:53:38 18° N 23:53:38 18° N 23:54:51 10° N visible
14 Sep ? 00:09:57 17° N 00:09:57 17° N 00:10:57 10° NNW visible
14 Sep ? 22:49:11 11° NNE 22:49:11 11° NNE 22:49:23 10° NNE visible
15 Sep ? 00:26:16 14° NNW 00:26:16 14° NNW 00:26:58 10° NNW visible
15 Sep ? 23:05:29 12° NNE 23:05:29 12° NNE 23:06:05 10° NNE visible
16 Sep ? 00:42:34 12° NNW 00:42:34 12° NNW 00:42:52 10° NNW visible
16 Sep ? 23:21:47 14° NNE 23:21:47 14° NNE 23:22:30 10° N visible
17 Sep ? 23:38:04 14° N 23:38:04 14° N 23:38:46 10° N visible
18 Sep ? 23:54:21 13° N 23:54:21 13° N 23:54:55 10° N visible
20 Sep ? 00:10:38 12° NNW 00:10:38 12° NNW 00:10:58 10° NNW visible
